軌道要素
Epoch 2010 Nov. 20.0 TT = JDT 2455520.5
T 2010 Nov. 7.38567 TT MPC
q 2.8427120 (2000.0) P Q
z +0.0032983 Peri. 265.02216 -0.30182796 -0.02451433
+/-0.0000006 Node 89.89871 +0.29855024 +0.94695758
e 0.9906240 Incl. 107.62689 -0.90541020 +0.32042220
From 567 observations 2010 Mar. 28-2012 Apr. 21, mean residual 0".5.
|